[[{"header":{"parameterUnit":"m.s-1","parameterCategory":1,"la1":30.2991,"la2":30.254,"lo1":-89.0895,"lo2":-89.0444,"dy":0.0017,"dx":0.0017,"nx":28,"ny":28,"refTime":"2024-09-30T21:00:00:Z","depth":0,"parameterNumber":2,"parameterNumberName":"U-component_of_WINDS"},"data":[0,0,0,0,0,0,0,0,0,0,0,0,0,0,0,0,0,0,0,0,0,0,0,0,0,0,0,0,0,0,0,0,0,0,0,0,0,0,0,0,0,0,0,0,0,0,0,0,0,0,0,0,0,0,0,0,0,0,-0.8924,-0.8923,0,-0.8838,-0.8837,-0.8836,-0.8767,-0.8766,-0.8765,-0.8764,-0.8677,-0.8675,-0.8674,0,0,0,0,0,0,0,0,0,0,0,0,0,-0.9028,-0.9027,-0.8924,-0.8923,-0.8921,-0.8838,-0.8837,-0.8836,-0.8767,-0.8766,-0.8765,-0.8764,-0.8678,-0.8676,-0.8674,0,0,0,0,0,0,0,0,0,0,0,0,0,-0.8967,-0.9026,-0.8924,-0.8877,-0.8872,-0.8838,-0.8837,-0.8835,-0.8767,-0.8766,-0.8765,-0.8764,-0.8678,-0.8676,-0.8673,-0.8679,0,0,-0.8666,-0.8665,0,0,0,0,0,0,0,0,-0.8971,-0.8963,-0.8885,-0.888,-0.8874,-0.8812,-0.8842,-0.8783,-0.8767,-0.8807,-0.8764,-0.8763,-0.8723,-0.8717,-0.8703,-0.8675,-0.8672,-0.8666,-0.8664,-0.8663,-0.8662,0,0,0,0,0,0,0,-0.8975,-0.8966,-0.889,-0.8884,-0.8877,-0.8861,-0.8851,-0.883,-0.8772,-0.8803,-0.8798,-0.8789,-0.872,-0.8705,-0.87,-0.867,-0.8666,-0.8663,-0.8662,-0.8661,-0.8645,-0.8646,0,0,0,0,0,0,-0.8986,-0.897,-0.8892,-0.8887,-0.8921,-0.886,-0.8848,-0.8833,-0.8772,-0.8761,-0.879,-0.8786,-0.871,-0.8703,-0.8697,-0.8701,-0.8663,-0.8661,-0.8659,-0.8644,-0.8645,-0.8646,0,0,0,0,0,0,-0.8989,-0.898,-0.8896,-0.8927,-0.8915,-0.8859,-0.8842,-0.8832,-0.8817,-0.8762,-0.8751,-0.8786,-0.8709,-0.87,-0.8685,-0.8697,-0.866,-0.8657,-0.8642,-0.8644,-0.8646,-0.8708,0,0,0,0,0,0,-0.8992,-0.8981,-0.8983,-0.8928,-0.8914,-0.8885,-0.8843,-0.8831,-0.8813,-0.8807,-0.8755,-0.8745,-0.8708,-0.8689,-0.8682,-0.8693,-0.8655,-0.8641,-0.8643,-0.8645,-0.8705,-0.8712,-0.8718,0,0,0,0,0,-0.8996,-0.9004,-0.8983,-0.8974,-0.8914,-0.8885,-0.8877,-0.8834,-0.8815,-0.8816,-0.878,-0.8747,-0.8697,-0.8688,-0.868,-0.869,-0.864,-0.8643,-0.8645,-0.8702,-0.8711,-0.8718,0,0,0,0,0,0,-0.9061,-0.8996,-0.8972,-0.8962,-0.893,-0.8874,-0.8874,-0.8844,-0.8816,-0.8812,-0.8759,-0.8748,-0.8738,-0.8712,-0.8703,-0.8693,-0.8664,-0.8665,-0.871,-0.8718,-0.8724,-0.8731,-0.8653,0,0,0,0,0,-0.9074,-0.9056,-0.9,-0.8996,-0.8981,-0.8931,-0.8916,-0.8886,-0.885,-0.8836,-0.8799,-0.8767,-0.8743,-0.8729,-0.8704,-0.8701,-0.8689,-0.8704,-0.871,-0.8716,-0.8718,-0.8715,-0.8722,-0.8654,-0.8654,-0.8654,0,0,-0.9101,-0.9063,-0.9055,-0.9009,-0.898,-0.8963,-0.892,-0.8903,-0.889,-0.8834,-0.8817,-0.8789,-0.8749,-0.8739,-0.8733,-0.8717,-0.8734,-0.8719,-0.8724,-0.8722,-0.8718,-0.8725,-0.8731,-0.8656,-0.8655,-0.8655,0,0,-0.9142,-0.9111,-0.9105,-0.9078,-0.9035,-0.9002,-0.9001,-0.8949,-0.8928,-0.891,-0.8868,-0.8852,-0.8813,-0.8786,-0.8768,-0.88,-0.8769,-0.8793,-0.8827,-0.8826,-0.8831,-0.8836,-0.8848,-0.8853,-0.8795,-0.8795,-0.8795,0,-0.9181,-0.9153,-0.9106,-0.9092,-0.9074,-0.9022,-0.9016,-0.8992,-0.8944,-0.8932,-0.8915,-0.8866,-0.8835,-0.8819,-0.8828,-0.8814,-0.8812,-0.8799,-0.8834,-0.8838,-0.8842,-0.8853,-0.8858,-0.8799,-0.8798,-0.8798,-0.8798,0,-0.9204,-0.9185,-0.9186,-0.9141,-0.9122,-0.9113,-0.9065,-0.9051,-0.9023,-0.8991,-0.8974,-0.8936,-0.8903,-0.8897,-0.8868,-0.8878,-0.8869,-0.8844,-0.8814,-0.8852,-0.8862,-0.8866,-0.8803,-0.8802,-0.8801,-0.88,0,0,-0.9283,-0.9213,-0.9214,-0.9193,-0.9143,-0.9128,-0.9117,-0.9085,-0.9075,-0.9044,-0.9034,-0.9002,-0.8979,-0.8958,-0.8926,-0.8924,-0.8954,-0.8899,-0.8897,-0.8911,-0.8964,-0.8984,-0.899,-0.8933,-0.8933,-0.8934,-0.8967,0,-0.9316,-0.9292,-0.925,-0.924,-0.9223,-0.9175,-0.9165,-0.9133,-0.9104,-0.9086,-0.9053,-0.9032,-0.9002,-0.8989,-0.8985,-0.8951,-0.8964,-0.8948,-0.8924,-0.8923,-0.8936,-0.8995,-0.9015,-0.9049,-0.8971,-0.8971,-0.8972,0,-0.9351,-0.9324,-0.9312,-0.9265,-0.9256,-0.9248,-0.9216,-0.9199,-0.9163,-0.9141,-0.9119,-0.9084,-0.907,-0.9043,-0.9023,-0.9014,-0.9001,-0.8983,-0.8983,-0.898,-0.8951,-0.8994,-0.9058,-0.9064,-0.8977,-0.8977,-0.8976,0,-0.9412,-0.9371,-0.9359,-0.9343,-0.9287,-0.9283,-0.9259,-0.9222,-0.9206,-0.9178,-0.9167,-0.9139,-0.9123,-0.9102,-0.9061,-0.9044,-0.9047,-0.9015,-0.903,-0.9031,-0.9033,-0.9034,-0.9097,-0.9024,-0.9024,-0.9023,-0.9023,0,-0.9454,-0.9449,-0.9386,-0.9379,-0.9373,-0.9324,-0.932,-0.9291,-0.9259,-0.9246,-0.9202,-0.9191,-0.9137,-0.912,-0.9088,-0.9078,-0.9071,-0.9054,-0.9045,-0.9058,-0.9061,-0.905,-0.9047,-0.9025,-0.9024,-0.9024,-0.9024,0,-0.952,-0.9477,-0.9462,-0.941,-0.9397,-0.9395,-0.935,-0.9342,-0.931,-0.9295,-0.9289,-0.9239,-0.9217,-0.9173,-0.9139,-0.9117,-0.9115,-0.91,-0.9128,-0.9123,-0.914,-0.9139,-0.92,-0.9206,-0.9128,-0.9129,-0.9129,0,-0.955,-0.9545,-0.9493,-0.9482,-0.946,-0.9441,-0.9425,-0.9378,-0.9363,-0.9322,-0.9319,-0.9294,-0.9271,-0.9238,-0.9199,-0.9173,-0.9157,-0.918,-0.9153,-0.9167,-0.9159,-0.9161,-0.9161,-0.9187,-0.9188,-0.9189,-0.919,0,-0.9608,-0.9588,-0.9566,-0.9537,-0.9519,-0.9494,-0.9467,-0.946,-0.9406,-0.9392,-0.9369,-0.9351,-0.9317,-0.9292,-0.9261,-0.9237,-0.9205,-0.9198,-0.9201,-0.9214,-0.9231,-0.9224,-0.9146,-0.9197,-0.9197,-0.9196,-0.9196,-0.9195,-0.9658,-0.9652,-0.9615,-0.9592,-0.9567,-0.9543,-0.9533,-0.9501,-0.948,-0.9449,-0.9422,-0.9402,-0.9367,-0.9321,-0.93,-0.9284,-0.9268,-0.9271,-0.9272,-0.9274,-0.928,-0.9233,-0.9278,-0.9277,-0.9277,-0.9277,-0.9277,0,-0.9715,-0.9689,-0.9669,-0.9632,-0.9615,-0.9586,-0.9555,-0.9542,-0.9525,-0.9495,-0.9474,-0.9448,-0.9425,-0.9385,-0.9358,-0.9353,-0.9338,-0.9348,-0.9348,-0.9344,-0.9294,-0.9296,-0.9361,-0.9361,-0.9361,-0.9361,-0.9361,-0.9361,-0.9742,-0.9732,-0.9707,-0.9684,-0.9657,-0.9637,-0.9622,-0.96,-0.9576,-0.955,-0.953,-0.9504,-0.947,-0.9441,-0.9419,-0.9408,-0.9401,-0.9416,-0.94,-0.9355,-0.9347,-0.934,-0.9341,-0.9414,-0.9414,-0.9451,-0.9451,-0.9452]},{"header":{"parameterUnit":"m.s-1","parameterCategory":1,"la1":30.2991,"la2":30.254,"lo1":-89.0895,"lo2":-89.0444,"dy":0.0017,"dx":0.0017,"nx":28,"ny":28,"refTime":"2024-09-30T21:00:00:Z","depth":0,"parameterNumber":3,"parameterNumberName":"V-component_of_WINDS"},"data":[0,0,0,0,0,0,0,0,0,0,0,0,0,0,0,0,0,0,0,0,0,0,0,0,0,0,0,0,0,0,0,0,0,0,0,0,0,0,0,0,0,0,0,0,0,0,0,0,0,0,0,0,0,0,0,0,0,0,-0.1446,-0.1446,0,-0.1434,-0.1434,-0.1434,-0.1417,-0.1417,-0.1417,-0.1416,-0.1405,-0.1405,-0.1405,0,0,0,0,0,0,0,0,0,0,0,0,0,-0.1456,-0.1455,-0.1446,-0.1446,-0.1446,-0.1434,-0.1434,-0.1434,-0.1417,-0.1417,-0.1417,-0.1416,-0.1405,-0.1405,-0.1405,0,0,0,0,0,0,0,0,0,0,0,0,0,-0.1448,-0.1455,-0.1446,-0.1436,-0.1435,-0.1434,-0.1434,-0.1434,-0.1417,-0.1417,-0.1416,-0.1416,-0.1405,-0.1405,-0.1405,-0.1413,0,0,-0.1405,-0.1405,0,0,0,0,0,0,0,0,-0.1449,-0.1448,-0.1438,-0.1437,-0.1436,-0.1427,-0.1433,-0.1427,-0.1417,-0.1424,-0.1416,-0.1416,-0.1413,-0.1412,-0.1411,-0.1413,-0.1412,-0.1405,-0.1405,-0.1405,-0.1405,0,0,0,0,0,0,0,-0.1449,-0.1449,-0.1441,-0.1438,-0.1436,-0.1433,-0.1431,-0.1432,-0.1421,-0.1423,-0.1422,-0.1421,-0.1412,-0.1411,-0.141,-0.1412,-0.1405,-0.1405,-0.1405,-0.1404,-0.1423,-0.1424,0,0,0,0,0,0,-0.1451,-0.1449,-0.1442,-0.1441,-0.1441,-0.1433,-0.1431,-0.143,-0.1421,-0.1419,-0.1421,-0.142,-0.1411,-0.141,-0.141,-0.1421,-0.1405,-0.1404,-0.1404,-0.1423,-0.1423,-0.1424,0,0,0,0,0,0,-0.1451,-0.1451,-0.1442,-0.1445,-0.1443,-0.1433,-0.1432,-0.143,-0.1429,-0.1419,-0.1417,-0.1422,-0.1411,-0.141,-0.1413,-0.142,-0.1404,-0.1404,-0.1422,-0.1423,-0.1423,-0.1442,0,0,0,0,0,0,-0.1452,-0.1451,-0.1453,-0.1445,-0.1443,-0.1445,-0.1432,-0.143,-0.1429,-0.1427,-0.142,-0.1418,-0.141,-0.1413,-0.1413,-0.142,-0.1404,-0.1421,-0.1422,-0.1423,-0.1441,-0.1443,-0.1446,0,0,0,0,0,-0.1452,-0.1459,-0.1454,-0.1453,-0.1446,-0.1446,-0.1445,-0.1436,-0.1429,-0.1432,-0.1427,-0.1418,-0.1419,-0.1414,-0.1413,-0.142,-0.1421,-0.1422,-0.1423,-0.144,-0.1443,-0.1446,0,0,0,0,0,0,-0.1468,-0.1457,-0.1452,-0.1455,-0.1452,-0.1443,-0.1446,-0.1439,-0.1437,-0.1436,-0.1425,-0.1423,-0.1428,-0.1424,-0.1418,-0.1429,-0.1419,-0.142,-0.1432,-0.1435,-0.1437,-0.1438,-0.1404,0,0,0,0,0,-0.1472,-0.1472,-0.1463,-0.1467,-0.1466,-0.1456,-0.1456,-0.1449,-0.1445,-0.1443,-0.1438,-0.1434,-0.1434,-0.1434,-0.1433,-0.144,-0.1439,-0.1445,-0.1447,-0.1449,-0.1451,-0.1456,-0.1459,-0.1428,-0.1428,-0.1428,0,0,-0.148,-0.1474,-0.1475,-0.147,-0.1467,-0.1468,-0.1455,-0.1456,-0.1458,-0.1443,-0.1447,-0.1443,-0.1438,-0.1444,-0.1446,-0.1441,-0.1459,-0.1451,-0.1452,-0.1453,-0.1458,-0.1461,-0.1464,-0.1428,-0.1428,-0.1428,0,0,-0.1496,-0.1491,-0.1495,-0.1492,-0.1487,-0.1481,-0.1482,-0.1474,-0.1471,-0.1474,-0.1465,-0.1466,-0.1465,-0.1463,-0.1462,-0.1479,-0.1472,-0.1479,-0.1492,-0.1498,-0.15,-0.1502,-0.151,-0.1513,-0.148,-0.148,-0.148,0,-0.1506,-0.1507,-0.1498,-0.15,-0.1499,-0.1487,-0.1492,-0.149,-0.1485,-0.1485,-0.1479,-0.1479,-0.1475,-0.1481,-0.1485,-0.1484,-0.1486,-0.148,-0.1501,-0.1503,-0.1505,-0.1512,-0.1515,-0.1481,-0.1481,-0.1481,-0.1481,0,-0.1522,-0.1523,-0.1527,-0.1523,-0.1523,-0.1526,-0.1518,-0.1519,-0.1513,-0.1508,-0.1513,-0.1507,-0.1506,-0.1507,-0.1501,-0.1513,-0.151,-0.1502,-0.1492,-0.1509,-0.1516,-0.1519,-0.1483,-0.1482,-0.1482,-0.1482,0,0,-0.1546,-0.1538,-0.154,-0.154,-0.1534,-0.1535,-0.1539,-0.1538,-0.154,-0.1537,-0.1541,-0.1542,-0.1535,-0.1534,-0.1527,-0.1532,-0.1549,-0.1524,-0.1524,-0.1531,-0.1565,-0.1572,-0.1575,-0.1544,-0.1544,-0.1544,-0.1566,0,-0.1562,-0.1568,-0.156,-0.1569,-0.1571,-0.156,-0.1564,-0.1562,-0.1558,-0.1559,-0.1555,-0.1556,-0.1546,-0.1546,-0.155,-0.1546,-0.1556,-0.1544,-0.1549,-0.1549,-0.1552,-0.1578,-0.1585,-0.1606,-0.1568,-0.1569,-0.1569,0,-0.158,-0.158,-0.1589,-0.1585,-0.1585,-0.1589,-0.1589,-0.159,-0.1588,-0.1585,-0.1584,-0.1577,-0.1582,-0.1571,-0.1579,-0.1571,-0.1572,-0.1571,-0.1571,-0.1573,-0.1561,-0.1582,-0.1612,-0.1615,-0.1573,-0.1572,-0.1572,0,-0.16,-0.1601,-0.1607,-0.1606,-0.1601,-0.1605,-0.1603,-0.16,-0.1601,-0.1601,-0.1602,-0.1602,-0.1603,-0.1603,-0.1597,-0.1589,-0.1606,-0.1594,-0.1605,-0.1605,-0.161,-0.161,-0.1642,-0.1608,-0.1608,-0.1608,-0.1608,0,-0.1618,-0.1625,-0.1616,-0.162,-0.1627,-0.1619,-0.1626,-0.1623,-0.1622,-0.1626,-0.1616,-0.162,-0.1611,-0.1614,-0.1609,-0.1617,-0.1617,-0.1615,-0.1614,-0.1617,-0.1618,-0.1619,-0.1618,-0.1609,-0.1608,-0.1608,-0.1608,0,-0.1641,-0.1635,-0.1641,-0.1637,-0.1636,-0.1642,-0.1639,-0.1643,-0.1639,-0.1644,-0.1645,-0.1639,-0.1642,-0.1636,-0.1638,-0.1635,-0.1647,-0.1643,-0.1648,-0.1648,-0.1659,-0.1659,-0.1695,-0.17,-0.1661,-0.1661,-0.1662,0,-0.1654,-0.1659,-0.1656,-0.1658,-0.1657,-0.166,-0.1662,-0.1654,-0.1656,-0.1655,-0.166,-0.1663,-0.1665,-0.1672,-0.1668,-0.167,-0.1667,-0.168,-0.1668,-0.1671,-0.167,-0.1671,-0.1672,-0.1682,-0.1683,-0.1683,-0.1683,0,-0.1678,-0.1676,-0.1678,-0.168,-0.1683,-0.1684,-0.1684,-0.1687,-0.1679,-0.1682,-0.1686,-0.1688,-0.1692,-0.1695,-0.1697,-0.1696,-0.1689,-0.1687,-0.169,-0.1694,-0.1698,-0.1698,-0.1657,-0.1687,-0.1686,-0.1686,-0.1686,-0.1686,-0.1697,-0.1702,-0.1702,-0.1705,-0.1705,-0.1707,-0.1711,-0.1709,-0.1712,-0.1715,-0.171,-0.1716,-0.1716,-0.1718,-0.1718,-0.1723,-0.1718,-0.1721,-0.1723,-0.1724,-0.1727,-0.1696,-0.1723,-0.1723,-0.1723,-0.1723,-0.1722,0,-0.1723,-0.1722,-0.1726,-0.1728,-0.1732,-0.1725,-0.1726,-0.173,-0.1735,-0.1736,-0.1739,-0.1745,-0.1749,-0.1746,-0.175,-0.1755,-0.1752,-0.1756,-0.1757,-0.1757,-0.173,-0.1728,-0.1759,-0.1759,-0.1759,-0.1759,-0.1759,-0.1759,-0.1736,-0.1745,-0.1743,-0.1753,-0.1752,-0.1759,-0.176,-0.1762,-0.1763,-0.177,-0.1774,-0.1772,-0.1772,-0.1776,-0.1781,-0.178,-0.1783,-0.1788,-0.1787,-0.1762,-0.1759,-0.1755,-0.1753,-0.1789,-0.1789,-0.1813,-0.1814,-0.1814]}]]